Augusta, GA

12:17 AM EDT on October 20, 2017 (GMT -0400)
Daniel

Weather History for KDNL - November, 2013

Change the Weather History Date:

Monday, November 4, 2013

  Actual Average Record
Temperature  
Mean Temperature 55 °F -  
Max Temperature 64 °F 68 °F 81 °F (2012)
Min Temperature 46 °F 49 °F 36 °F (2006)
Degree Days  
Heating Degree Days 10    
Month to date heating degree days 21  
Growing Degree Days 4 (Base 50)    
Moisture  
Dew Point 35 °F    
Average Humidity 50    
Maximum Humidity 71    
Minimum Humidity 30    
Precipitation  
Precipitation 0.00 in - - ()
Month to date precipitation 1.06  
Year to date precipitation 52.40  
Sea Level Pressure  
Sea Level Pressure 30.41 in    
Wind  
Wind Speed 9 mph (NE)    
Max Wind Speed 15 mph    
Max Gust Speed 22 mph    
Visibility 10 miles    
Events      
Averages and records for this station are not official NWS values.
T = Trace of Precipitation, MM = Missing Value Source: NWS Daily Summary

Daily Weather History Graph

Daily Weather History Graph

Search for Another Location

Airport or City:

Trip Planner

Search our weather history database for the weather conditions in past years. The results will help you decide how hot, cold, wet, or windy it might be!

Date:

Astronomy

Nov. 04, 2013 Rise Set
Actual Time 6:49 AM EST 5:33 PM EST
Civil Twilight 6:23 AM EST 5:59 PM EST
Nautical Twilight 5:54 AM EST 6:28 PM EST
Astronomical Twilight 5:25 AM EST 6:57 PM EST
Moon 7:56 AM EST (11/4) 6:40 PM EST (11/4)
Length of Visible Light 11h 35m
Length of Day
10h 43m
New Moon, 2% of the Moon is Illuminated
Nov 4
New Moon
Nov 10
First Quarter
Nov 17
Full
Nov 25
Last Quarter
Dec 2
New

Hourly Weather History & Observations

Time (EST) Temp. Windchill Dew Point Humidity Pressure Visibility Wind Dir Wind Speed Gust Speed Precip Events Conditions
12:53 AM 51.1 °F - 37.0 °F 59% 30.33 in 10.0 mi NE 6.9 mph - N/A   Clear
1:53 AM 50.0 °F - 37.9 °F 63% 30.34 in 10.0 mi NNE 6.9 mph - N/A   Clear
2:53 AM 50.0 °F - 37.0 °F 61% 30.35 in 10.0 mi NE 6.9 mph - N/A   Clear
3:53 AM 50.0 °F - 37.0 °F 61% 30.35 in 10.0 mi NE 9.2 mph - N/A   Clear
4:53 AM 48.0 °F - 37.0 °F 66% 30.37 in 10.0 mi NE 10.4 mph - N/A   Clear
5:53 AM 46.9 °F - 37.9 °F 71% 30.39 in 10.0 mi NE 9.2 mph - N/A   Clear
6:53 AM 46.0 °F 41.0 °F 37.9 °F 73% 30.41 in 10.0 mi NE 10.4 mph - N/A   Clear
7:53 AM 48.0 °F - 37.0 °F 66% 30.42 in 10.0 mi ENE 11.5 mph - N/A   Clear
8:53 AM 51.1 °F - 36.0 °F 56% 30.45 in 10.0 mi ENE 10.4 mph - N/A   Clear
9:53 AM 55.0 °F - 33.1 °F 43% 30.46 in 10.0 mi East 11.5 mph - N/A   Clear
10:53 AM 57.9 °F - 32.0 °F 37% 30.48 in 10.0 mi ENE 9.2 mph - N/A   Clear
11:53 AM 60.1 °F - 32.0 °F 35% 30.46 in 10.0 mi East 15.0 mph 21.9 mph N/A   Clear
12:53 PM 62.1 °F - 32.0 °F 32% 30.43 in 10.0 mi ENE 11.5 mph - N/A   Clear
1:53 PM 62.1 °F - 30.0 °F 30% 30.41 in 10.0 mi NE 9.2 mph 16.1 mph N/A   Clear
2:53 PM 63.0 °F - 30.0 °F 29% 30.41 in 10.0 mi NE 9.2 mph - N/A   Clear
3:53 PM 63.0 °F - 30.0 °F 29% 30.40 in 10.0 mi ENE 12.7 mph - N/A   Clear
4:53 PM 61.0 °F - 30.9 °F 32% 30.40 in 10.0 mi NE 10.4 mph - N/A   Clear
5:53 PM 57.9 °F - 33.1 °F 39% 30.40 in 10.0 mi NNE 8.1 mph - N/A   Clear
6:53 PM 55.0 °F - 36.0 °F 49% 30.42 in 10.0 mi NNE 6.9 mph - N/A   Clear
7:53 PM 53.1 °F - 35.1 °F 50% 30.43 in 10.0 mi ENE 5.8 mph - N/A   Clear
8:53 PM 52.0 °F - 35.1 °F 53% 30.44 in 10.0 mi NE 6.9 mph - N/A   Clear
9:53 PM 51.1 °F - 35.1 °F 54% 30.45 in 10.0 mi ENE 8.1 mph - N/A   Clear
10:53 PM 48.9 °F - 35.1 °F 59% 30.45 in 10.0 mi ENE 8.1 mph - N/A   Clear
11:53 PM 48.0 °F - 34.0 °F 58% 30.46 in 10.0 mi ENE 11.5 mph - N/A   Clear